User: anonymous   Login
Location: Newark
(47.8285°N, 0.6972°W)
Time: 14:25:12
(UTC+00:00)
Language:

LightSail 2 - Orbit

View from above orbital plane
View from above orbital plane
View from above satellite
View from above satellite

Ground track
Ground track

The orbit data is extracted from the following two-line orbital elements,

1 44420U 19036AC  19325.15801965  .00002078  00000-0  43617-3 0  9999
2 44420  24.0102 348.1777 0021262  28.9503 331.2125 14.53675516 19800
Epoch (UTC): 21 November 2019 03:47:32
Eccentricity: 0.0021262
inclination: 24.0102°
perigee height: 698 km
apogee height: 729 km
right ascension of ascending node: 348.1777°
argument of perigee: 28.9503°
revolutions per day: 14.53675516
mean anomaly at epoch: 331.2125°
orbit number at epoch: 1980

The dashed part of the orbit path shows where the satellite is in the earth's shadow,  

DLR